Tracking 19817 objects as of 17-Aug-2019
HD Live streaming from Space Station
objects crossing your sky now

COSMOS 2251 DEB

Track COSMOS 2251 DEB now!
10-day predictions


NORAD ID: 35284
Int'l Code: 1993-036AJN
Perigee: 767.7 km
Apogee: 790.6 km
Inclination: 74.0 °
Period: 100.3 minutes
Semi major axis: 7150 km
RCS: 0.0089 m2 (small)
Launch date: June 16, 1993
Source: Commonwealth of Independent States (former USSR) (CIS)
Launch site: PLESETSK MISSILE AND SPACE COMPLEX (PKMTR)

Note: This is SATELLITE DEBRIS
aabbcc
Your satellite tracking list
Your tracking list is empty




NASA's NSSDC Master Catalog

Two Line Element Set (TLE):
1 35284U 93036AJN 19228.88022484 +.00000016 +00000-0 +14323-4 0  9995
2 35284 074.0496 185.6422 0016054 120.3641 270.9558 14.35920791323550
Source of the keplerian elements: AFSPC